User: anonymous   Login
Location: NJAA Observatory
(40.6819°N, 74.8979°W)
Time: 00:47:34
(UTC-05:00)
Language:

Meteor 2-9 Rocket - Orbit

View from above orbital plane
View from above orbital plane
View from above satellite
View from above satellite

Ground track
Ground track

The orbit data is extracted from the following two-line orbital elements,

1 13719U 82116B   14326.73668065  .00000105  00000-0  46544-4 0  5614
2 13719 081.2545 198.6555 0072489 146.2632 276.8779 14.14498141647832
Epoch (UTC): 22 November 2014 17:40:49
Eccentricity: 0.0072489
inclination: 81.2545°
perigee height: 791 km
apogee height: 896 km
right ascension of ascending node: 198.6555°
argument of perigee: 146.2632°
revolutions per day: 14.14498141
mean anomaly at epoch: 276.8779°
orbit number at epoch: 64783

The dashed part of the orbit path shows where the satellite is in the earth's shadow,  

DLR